Flag for Ecuador Weather past 2 weeks in Guayaquil, Ecuador

Now
81 °F

Passing clouds.


Feels Like: 85 °F
Forecast: 74 / 89 °F
Wind: 12 mph from Southwest

Location: Guayaquil / Simon Bolivar

Current Time: Aug 2, 2015 at 7:58:18 PM

Latest Report: Aug 2, 2015 at 7:00 PM


Visibility: N/A

Pressure: 29.74 "Hg

Humidity: 74%

Dew point: 72 °F

Location of GuayaquilLocation

Historic Weather in Guayaquil — Graph

°F

Guayaquil temperature yesterday

Maximum temperature yesterday: 84 °F (at 2:00 PM)
Minimum temperature yesterday: 73 °F (at 1:00 AM)
Average temperature yesterday: 79 °F

Past Weeks' High & Low Weather Summary

 TemperatureHumidityPressure
High90 °F (Jul 30, 3:00 PM)89% (Jul 18, 10:00 PM)29.95 "Hg (Jul 18, 10:00 PM)
Low72 °F (Jul 29, 3:00 AM)55% (Jul 21, 4:00 PM)29.68 "Hg (Jul 25, 4:00 PM)
Average79 °F74%29.84 "Hg
* Reported Jul 18 6:00 PM — Aug 2 6:00 PM, Guayaquil, Weather by CustomWeather, © 2015

Note: Actual official high and low records may vary slightly from our data, if they occured in-between our weather recording intervals... More about our weather records

Advertising

Guayaquil weather history for previous 24 hours

 ConditionsComfort  
Time TempWeatherWind HumidityBarometerVisibility
6:00 PM
Sun, Aug 2
84 °FScattered clouds.9 mph62%29.71 "HgN/A
5:00 PM86 °FPartly sunny.8 mph59%29.71 "HgN/A
4:00 PM88 °FScattered clouds.5 mph55%29.71 "HgN/A
3:00 PM88 °FScattered clouds.5 mph55%29.74 "HgN/A
2:00 PM88 °FPartly sunny.N/A55%29.77 "HgN/A
1:00 PM86 °FPartly sunny.6 mph59%29.77 "HgN/A
12:00 PM86 °FPartly sunny.6 mph59%29.80 "HgN/A
11:00 AM84 °FBroken clouds.7 mph62%29.83 "HgN/A
10:00 AM82 °FScattered clouds.7 mph62%29.83 "HgN/A
9:00 AM81 °FScattered clouds.7 mph66%29.83 "HgN/A
8:00 AM77 °FPassing clouds.7 mph74%29.80 "HgN/A
7:00 AM73 °FPassing clouds.7 mph83%29.80 "HgN/A
6:00 AM73 °FClear.7 mph83%29.80 "Hg10 mi
5:00 AM75 °FClear.8 mph78%29.77 "Hg10 mi
4:00 AM75 °FMostly cloudy.7 mph78%29.80 "HgN/A
2:00 AM73 °FPassing clouds.8 mph83%29.83 "HgN/A
1:00 AM75 °FClear.10 mph78%29.83 "Hg10 mi
12:00 AM75 °FClear.12 mph78%29.83 "Hg10 mi
11:00 PM
Sat, Aug 1
77 °FClear.13 mph79%29.83 "Hg10 mi
10:00 PM77 °FPassing clouds.10 mph79%29.83 "HgN/A
9:00 PM79 °FPassing clouds.10 mph74%29.80 "HgN/A
8:00 PM81 °FPassing clouds.6 mph74%29.80 "HgN/A
7:00 PM81 °FPassing clouds.5 mph70%29.77 "HgN/A
Weather by CustomWeather, © 2015

See weather overviewHow to use our weather pages